Wind_Speed
36 37 40 41 42 41 37 35 34 30 25 23 22 23 24 23 23 22 20 19 20 21 23 23 24 27 27 26 22 20 23 28 29 30 31 32 32 33 31 29 28 30 29 26 26 26 26 25 26 25 23 23 23 23 22 22 21 20 19 19 18 19 20 21 21 21 21 20 20 21 21 21 21 23 24 24 24 24 24 23 22 22 22 22 22 22
38 40 43 41 41 40 37 35 35 30 22 21 24 23 24 24 22 20 17 16 17 20 20 20 23 27 27 25 24 23 25 27 27 28 29 29 30 32 33 32 29 28 28 29 30 29 28 28 27 27 26 25 24 23 23 22 22 22 21 20 19 19 21 21 21 21 21 20 20 21 22 22 23 24 25 25 25 25 25 24 24 23 23 23 23 23
41 44 44 41 39 39 36 34 35 31 23 20 23 22 22 21 19 18 17 14 17 20 20 21 26 28 29 28 28 29 30 28 25 27 27 27 28 29 31 33 32 30 29 31 33 32 31 30 29 29 29 27 25 24 24 24 23 23 23 21 20 21 22 21 21 21 20 20 20 21 23 24 24 25 25 25 26 26 26 25 25 25 24 24 23 24
43 47 46 41 40 40 37 35 34 33 29 25 25 24 23 21 18 17 16 14 15 19 21 22 27 31 32 31 31 30 31 30 28 28 29 29 29 28 29 31 33 33 32 31 33 34 33 32 31 31 30 28 27 26 26 25 24 24 22 21 20 21 22 22 22 21 21 21 21 23 23 24 25 26 26 26 27 26 25 25 25 25 25 24 24 24
47 47 44 42 44 42 37 35 35 35 34 31 29 27 24 21 20 17 13 13 15 18 20 21 25 32 35 34 33 29 29 31 31 30 31 30 31 30 29 30 32 34 35 34 34 35 36 35 33 32 31 30 29 28 27 25 24 23 22 21 21 21 22 22 23 22 22 22 23 24 25 26 26 26 26 26 25 25 25 25 25 25 26 25 25 25
50 46 43 43 46 44 39 38 38 38 37 35 35 33 26 21 20 16 14 14 16 18 20 18 16 19 26 29 28 26 27 28 29 30 31 30 30 32 32 31 30 31 34 37 37 37 38 37 35 33 32 32 32 30 27 26 25 24 24 23 23 22 22 22 23 23 24 24 24 26 27 27 27 27 27 26 24 24 25 26 26 27 28 27 27 26
50 47 45 44 44 43 42 41 41 40 38 38 39 36 30 26 22 18 16 14 13 15 17 16 12 13 23 29 26 23 25 25 25 26 27 26 26 28 31 31 31 31 33 36 39 39 39 38 38 36 35 33 32 30 28 27 26 26 26 25 25 24 23 23 24 25 25 25 26 27 28 28 28 28 27 26 25 26 26 27 28 29 29 29 28 28
49 49 45 42 42 43 44 44 43 41 39 40 40 34 33 32 26 20 16 14 13 15 17 19 18 18 28 36 33 31 32 31 31 31 29 28 26 25 26 27 28 29 30 33 38 41 41 40 39 38 36 34 31 29 29 29 28 28 27 27 26 26 25 25 25 26 27 27 27 28 29 29 30 29 28 27 27 28 28 29 30 30 30 30 29 29
49 50 49 45 43 44 48 46 43 41 39 39 36 32 31 31 29 24 18 16 16 16 19 22 19 15 23 36 38 36 38 36 34 33 31 30 27 25 24 24 25 25 26 28 34 40 42 41 39 37 36 34 32 31 30 30 29 28 28 28 29 28 28 27 27 27 28 29 29 30 31 31 31 30 30 30 30 30 30 30 30 31 31 31 30 30
47 48 49 48 48 48 47 43 41 39 38 35 30 28 28 28 30 27 20 19 16 13 20 26 22 14 19 35 40 38 39 40 35 31 29 28 27 26 24 24 24 22 23 25 29 36 41 41 39 37 36 35 34 33 32 31 30 30 30 31 31 30 29 28 28 29 29 30 30 31 32 32 32 32 32 32 32 32 32 32 31 31 31 31 31 31
47 46 44 44 46 47 44 40 39 37 35 33 26 25 27 28 28 25 23 21 13 12 21 27 27 19 14 21 29 33 34 33 30 27 24 23 23 23 21 19 19 19 20 21 25 30 36 40 38 37 38 36 35 34 33 33 32 32 32 32 31 30 29 29 29 29 29 30 31 31 32 32 32 33 33 34 34 34 34 34 33 33 33 33 33 33
45 40 41 43 42 44 42 39 36 33 35 34 29 29 27 23 22 19 18 16 10 10 14 17 21 21 18 14 12 18 23 24 26 26 24 21 18 18 18 18 16 16 17 17 20 24 31 37 38 38 39 38 37 36 35 35 34 34 33 33 32 31 30 29 29 29 29 29 30 30 30 31 30 31 33 33 33 34 34 34 34 35 35 35 35 35
44 42 41 41 41 43 41 38 37 35 38 36 33 35 26 13 12 12 8 7 9 8 3 5 10 18 32 34 28 30 34 33 32 29 25 23 21 20 20 20 18 16 17 17 18 21 26 34 38 40 40 39 39 39 37 36 35 34 34 33 33 31 30 30 29 29 29 29 28 28 29 29 29 30 31 32 32 32 33 33 34 35 35 35 36 36
36 38 42 42 41 43 43 43 44 41 43 41 40 43 31 11 5 7 4 1 7 10 7 7 8 15 32 35 31 32 31 29 30 31 29 27 24 22 20 20 19 17 16 17 18 21 24 29 35 40 42 41 41 40 39 38 37 35 34 33 33 31 30 30 30 30 29 28 27 27 28 28 28 30 30 31 31 31 31 31 31 32 33 33 34 34
33 27 42 51 46 46 48 48 47 46 49 49 47 48 40 22 10 7 7 6 6 7 11 14 10 12 19 16 10 6 7 10 14 19 22 22 19 17 16 17 17 15 14 14 16 19 23 27 31 36 40 42 42 42 41 41 40 39 37 35 34 32 31 32 32 31 31 29 28 28 28 28 29 29 30 30 30 30 30 30 30 31 31 31 32 32
35 23 37 53 51 50 51 49 48 45 45 48 46 43 40 33 23 13 10 13 9 3 8 17 17 18 18 16 12 6 3 5 5 5 7 6 5 7 8 11 13 15 17 17 17 17 20 24 28 32 35 39 41 43 43 43 43 43 41 39 37 35 34 34 34 33 32 30 30 30 29 29 30 31 31 31 31 31 31 31 31 31 31 31 31 31
33 23 32 46 49 50 49 47 49 47 43 44 43 40 38 35 29 16 6 7 7 3 8 17 24 29 25 24 24 22 21 19 18 21 18 15 15 16 16 15 15 18 20 21 21 20 20 22 26 29 32 34 37 41 44 44 44 43 43 42 41 39 38 38 36 35 33 32 32 32 31 31 31 32 32 32 32 33 33 34 33 32 32 32 31 31
40 28 31 44 50 51 48 46 49 51 48 44 41 43 39 29 25 20 6 2 4 4 8 17 27 29 23 20 17 17 23 23 22 25 22 20 19 19 18 15 15 17 18 20 21 22 23 23 24 28 30 31 32 35 40 43 44 44 44 44 43 43 42 40 39 37 35 34 34 33 33 32 32 32 33 33 33 34 34 35 34 34 33 33 33 33
41 27 26 41 49 47 47 47 47 49 51 47 43 46 42 25 21 24 14 6 7 5 5 12 22 26 29 29 18 11 12 8 8 11 12 11 11 13 15 15 16 16 15 16 17 19 22 23 24 25 27 29 30 31 35 39 43 44 43 43 43 42 42 41 41 40 39 38 37 36 36 35 35 35 34 34 34 35 35 35 35 35 35 35 36 36
41 28 22 38 48 46 47 50 49 49 49 45 40 45 46 33 25 32 30 18 11 7 6 6 8 18 34 40 34 28 24 18 16 18 18 18 17 16 14 13 13 13 14 14 14 16 19 21 23 24 25 27 28 29 32 34 38 40 41 41 41 41 41 42 42 42 41 41 40 39 39 38 38 37 37 36 36 36 36 35 35 35 35 36 37 38
41 35 25 35 44 44 48 51 53 54 50 46 44 45 47 39 27 29 32 25 14 5 4 3 4 14 21 19 19 22 22 23 23 21 21 19 14 11 9 8 9 10 12 13 13 15 16 18 20 22 23 25 26 28 29 31 34 36 38 39 40 40 40 41 41 42 42 42 42 41 40 39 39 39 38 38 38 38 37 37 37 36 36 37 38 38
36 39 34 35 40 43 49 54 56 58 56 54 54 51 50 44 32 20 15 20 22 13 7 4 7 17 20 13 13 17 18 19 17 17 19 14 8 7 8 8 9 11 12 13 14 15 16 17 18 19 21 22 24 25 26 28 30 31 34 36 37 39 39 40 40 41 41 41 41 41 40 39 39 39 39 39 39 39 38 38 37 37 38 39 39 40
37 39 37 37 42 44 45 51 54 54 55 54 51 51 49 44 39 27 14 19 27 26 23 15 11 24 31 28 29 29 26 23 17 14 16 11 7 8 8 8 9 11 12 14 15 16 17 18 19 20 21 22 23 23 23 24 25 26 29 30 33 35 37 38 40 40 41 41 41 41 40 40 39 39 40 40 40 40 39 39 39 39 39 40 41 41
36 35 34 31 37 41 39 45 53 54 53 49 45 46 46 44 46 41 31 28 26 29 31 16 11 25 25 17 23 25 22 21 17 16 16 13 13 12 10 11 11 11 12 12 14 16 17 19 21 22 23 23 23 22 22 22 22 22 24 25 27 29 32 35 38 40 41 41 41 41 41 41 40 40 40 40 40 40 40 40 40 40 40 40 41 41
36 33 33 23 16 20 22 26 37 44 46 45 45 46 46 47 47 43 39 32 24 33 37 17 15 33 26 16 18 18 17 21 22 22 20 18 16 14 15 15 12 11 11 11 12 14 15 18 20 22 23 23 22 22 22 22 22 22 22 22 23 24 25 28 31 34 37 39 40 41 42 42 42 41 41 41 41 41 42 42 41 40 39 40 40 39
45 35 38 30 14 11 16 22 34 46 49 48 51 53 51 51 51 49 45 34 26 36 40 29 30 38 28 21 22 19 20 24 25 25 24 20 19 18 19 17 14 14 15 14 14 14 15 17 18 20 22 23 23 23 23 24 24 24 23 22 22 22 22 23 24 26 28 31 34 36 38 39 40 40 40 41 41 41 41 41 39 39 38 37 36 35
49 40 43 45 36 31 34 40 50 58 57 54 54 57 57 55 54 52 45 39 38 37 33 37 45 43 33 26 21 22 26 27 26 27 24 23 22 21 21 20 19 20 20 19 17 16 17 17 17 19 20 21 22 23 24 25 25 26 25 23 23 22 22 22 22 23 24 26 28 30 32 33 35 36 36 37 38 38 38 37 36 36 35 34 34 33
45 44 44 47 46 42 37 38 47 53 55 57 58 57 56 51 50 49 46 46 46 30 22 37 48 46 47 41 28 26 30 30 31 32 27 25 24 24 26 25 23 22 21 21 20 18 18 17 18 18 18 19 20 20 21 22 23 24 23 23 23 23 23 22 23 23 24 25 27 28 29 30 31 32 32 33 33 33 33 33 33 33 32 32 33 33
41 44 49 49 47 43 35 33 41 49 53 58 59 58 58 54 52 53 54 55 50 35 36 51 51 49 57 54 44 44 42 39 41 40 35 33 32 33 33 29 25 23 22 22 22 21 20 20 20 20 19 20 20 21 21 21 21 21 20 20 21 21 22 22 22 23 24 25 26 27 28 28 28 29 29 29 29 29 29 30 29 30 29 30 30 31
42 43 47 47 47 44 37 32 34 41 48 53 54 57 59 59 59 59 60 61 56 51 56 61 57 59 64 59 56 57 50 46 47 46 44 42 41 40 37 32 27 24 23 24 22 22 23 22 21 21 22 23 23 23 23 21 20 20 19 19 20 20 21 21 22 22 23 23 24 24 24 24 24 24 24 24 24 24 25 25 25 26 26 26 27 27
45 45 44 45 44 42 40 38 34 34 42 48 51 53 55 55 57 60 61 60 57 56 61 63 60 64 67 61 58 57 52 50 51 50 49 47 43 40 37 33 27 24 25 24 22 23 24 24 23 24 25 26 27 26 25 24 23 22 21 21 21 21 21 20 20 21 20 20 20 19 19 19 20 20 21 21 21 22 22 23 23 24 25 25 25 26
42 42 41 41 36 34 42 43 38 37 40 45 50 52 52 54 56 58 61 61 61 62 64 64 61 64 67 63 59 58 55 54 53 50 48 46 42 39 38 33 27 26 26 24 23 25 26 26 26 26 27 29 30 29 28 27 26 26 25 25 24 24 22 21 20 19 19 19 18 18 19 19 20 21 21 22 22 22 23 23 24 24 25 26 25 26
40 38 35 36 32 34 42 43 41 37 30 34 51 57 57 60 61 62 64 64 65 66 64 63 60 57 57 55 53 54 54 54 54 51 48 47 44 40 37 31 27 28 27 25 26 28 29 29 28 29 30 31 31 31 31 31 30 29 29 28 27 27 26 24 23 21 21 20 20 20 21 22 23 23 23 23 23 23 23 23 24 24 25 25 24 24
37 40 36 34 31 30 36 40 37 26 18 32 57 64 63 65 64 64 65 65 65 65 62 59 54 49 50 51 50 50 51 51 50 48 47 47 44 39 35 30 29 29 26 25 27 28 29 30 30 32 33 33 33 33 33 34 34 33 32 31 30 30 29 28 27 26 25 24 23 23 23 24 25 25 25 25 25 24 24 24 23 23 22 22 22 21
28 40 39 35 31 25 31 35 22 13 26 46 57 57 58 61 60 59 59 59 59 60 59 57 52 50 53 54 51 49 48 47 46 46 45 44 41 38 34 30 29 28 26 26 27 27 29 31 32 33 33 33 35 36 36 37 37 37 36 34 33 33 32 32 31 30 29 28 27 27 26 26 26 26 26 26 26 24 23 22 21 19 19 18 18 18
21 32 38 37 31 22 24 27 14 14 33 43 41 44 50 51 52 55 57 59 59 57 57 55 53 51 52 52 50 47 44 44 45 46 45 44 42 39 33 28 27 27 26 26 26 28 30 31 32 32 32 33 36 37 37 38 39 39 39 38 37 36 35 35 34 33 32 31 30 29 28 28 27 27 28 27 25 22 20 18 18 17 17 17 17 17
21 25 32 33 30 22 21 25 22 18 22 29 36 45 50 53 56 58 60 64 62 58 56 54 53 52 51 50 49 45 43 46 50 49 45 44 43 39 32 26 24 26 27 26 28 31 31 31 32 32 33 34 35 36 37 38 38 39 40 40 41 40 39 38 36 35 34 32 31 30 28 27 27 27 27 24 22 20 19 19 19 19 19 19 20 21
25 26 28 27 27 26 22 19 16 9 14 33 48 52 53 55 54 54 57 61 58 53 54 55 55 56 55 50 48 48 48 52 55 52 48 45 42 38 32 26 24 27 29 29 31 33 31 31 33 34 34 34 34 34 35 36 37 38 39 40 41 41 41 41 40 39 38 36 34 31 29 27 27 26 24 22 21 20 20 21 21 21 22 22 23 24
25 26 29 27 24 25 22 15 10 11 25 45 52 50 49 48 47 46 46 52 58 54 51 53 55 56 56 52 50 49 51 56 58 54 48 44 39 35 30 27 26 29 31 32 34 33 33 34 35 35 35 35 34 35 36 36 36 36 36 36 36 37 38 38 39 39 38 37 36 34 31 29 27 24 23 21 21 21 21 22 23 24 25 25 26 27
24 25 29 31 27 25 22 17 14 21 35 44 44 44 44 44 44 37 28 39 59 57 49 53 57 55 54 52 51 53 55 59 59 52 43 38 34 32 31 29 28 30 33 34 33 32 34 35 35 35 35 35 36 36 36 35 35 33 32 32 31 30 30 31 32 32 32 33 34 33 31 28 26 24 23 22 21 22 22 24 25 27 27 28 28 27
23 26 29 34 33 28 23 18 18 28 41 44 40 38 37 35 37 35 31 45 59 52 46 52 56 54 52 49 50 55 55 55 53 48 41 37 35 35 35 34 32 32 33 33 32 33 35 36 35 35 34 34 34 34 34 34 32 30 29 28 26 25 25 26 26 25 26 28 31 31 28 27 25 24 23 23 23 23 24 26 28 28 29 28 27 26
22 24 26 32 33 30 28 22 18 27 44 48 39 29 27 33 39 42 46 53 53 47 45 46 46 47 48 49 52 56 54 49 48 47 44 40 37 35 36 37 37 35 34 34 34 34 34 34 33 34 32 31 31 30 30 30 29 28 27 25 24 23 22 21 21 21 22 26 29 30 27 25 25 24 23 24 24 25 27 28 28 29 28 27 25 23
23 21 23 30 32 27 23 17 13 24 42 48 39 31 31 39 45 48 49 48 48 47 43 39 35 34 36 40 45 46 42 37 39 45 47 42 36 34 36 38 37 35 35 36 35 34 33 32 31 30 30 28 28 28 28 28 28 27 26 25 23 21 19 17 16 17 20 23 27 29 27 24 24 24 24 25 26 27 27 27 27 27 26 24 23 22
26 25 24 30 32 28 24 22 27 38 45 43 40 40 42 44 45 45 44 44 46 45 42 36 30 26 26 25 24 26 27 25 28 35 39 37 34 33 35 36 35 35 36 35 33 32 31 30 29 29 28 28 28 28 28 27 27 26 25 24 22 20 18 16 15 14 16 20 25 27 27 25 25 25 26 26 26 27 27 26 26 25 24 23 23 22
34 35 32 32 34 33 35 38 44 47 47 44 44 44 41 40 43 44 43 42 42 42 42 39 33 30 30 27 25 29 32 31 31 31 31 33 33 31 32 34 36 37 36 32 29 29 29 30 30 29 28 28 28 28 27 26 26 25 24 23 22 20 19 17 15 14 15 18 22 24 26 26 26 26 27 26 26 26 25 25 25 24 24 23 23 22
37 38 37 36 36 36 40 44 47 49 49 46 40 35 31 32 37 40 39 37 37 37 36 36 36 37 37 36 36 34 32 31 32 31 31 33 32 30 33 36 37 36 32 29 28 27 27 28 27 27 26 26 26 26 26 25 25 25 24 24 23 22 20 18 18 17 18 19 22 24 25 26 26 26 26 25 25 25 24 24 23 23 22 21 21 21
37 35 35 37 37 37 38 41 45 50 53 47 36 29 27 28 30 31 30 31 32 30 28 30 34 37 37 37 35 32 29 29 29 29 30 31 30 31 34 35 33 32 30 29 29 27 26 25 24 24 25 24 23 24 24 24 25 25 24 24 23 22 21 20 20 20 21 22 23 24 25 25 25 25 24 23 23 22 21 21 21 20 20 19 19 20
37 36 35 37 39 40 41 42 43 46 50 51 46 39 30 27 27 28 27 26 26 23 22 24 28 32 33 32 30 31 31 30 29 30 30 29 28 29 30 29 29 29 29 29 28 26 24 24 23 24 24 23 23 23 23 23 23 23 23 23 23 22 22 21 21 21 22 22 23 23 23 23 23 22 21 21 20 19 19 19 19 19 19 19 19 20
37 36 36 36 38 42 45 45 44 45 48 50 50 46 35 27 24 24 24 24 22 17 15 17 19 24 27 29 31 33 32 31 30 28 27 25 25 26 26 26 27 27 26 26 26 25 25 24 24 24 24 24 23 23 22 22 22 22 22 22 22 22 22 21 21 21 21 21 21 21 21 21 21 20 19 19 19 19 19 19 19 19 20 20 21 21
38 38 38 37 39 44 45 43 44 47 49 47 45 44 40 33 28 25 23 21 18 15 14 15 17 21 25 28 29 27 25 24 23 22 21 22 22 23 24 25 25 25 25 25 26 26 26 25 24 25 24 24 24 22 22 21 21 21 21 20 20 20 20 19 19 19 19 20 20 21 21 21 20 20 19 19 19 19 19 19 19 20 21 22 23 24
44 43 42 41 43 45 44 41 41 43 45 44 41 41 42 41 38 36 31 25 21 19 18 20 23 25 26 26 23 21 19 20 20 21 23 24 25 26 26 26 25 24 24 24 24 24 23 23 24 24 24 24 23 22 21 21 20 20 19 19 19 19 18 18 19 19 20 21 21 21 21 20 20 19 19 19 19 19 20 21 21 22 23 24 25 26
Wind_Direction
204 201 204 213 218 217 215 214 216 221 224 226 231 238 238 235 238 242 241 239 239 245 250 255 264 266 262 261 257 251 247 246 248 251 250 247 246 248 252 252 250 248 250 253 254 253 253 252 252 251 248 247 247 248 250 253 256 257 256 254 253 252 253 253 252 253 253 251 250 251 253 254 253 254 256 257 259 261 262 264 264 264 265 267 271 275
203 205 212 222 223 219 218 217 217 219 217 223 231 235 237 237 238 239 238 240 242 246 254 263 268 266 261 260 260 257 252 247 247 250 252 252 249 249 251 253 252 251 248 248 250 251 251 251 252 252 250 248 248 249 251 252 254 255 255 254 254 255 254 256 257 257 258 258 257 257 257 258 257 257 258 259 261 262 263 264 266 267 267 268 270 274
200 211 219 226 225 220 219 217 217 218 213 215 223 226 227 229 229 229 229 236 243 248 254 261 266 267 264 260 258 256 254 253 250 249 253 256 255 251 251 252 253 252 249 247 248 249 250 251 252 252 251 249 249 249 249 249 250 251 253 254 254 255 256 257 258 259 261 261 260 259 259 259 261 261 262 263 263 264 265 267 269 271 273 274 274 276
203 217 222 221 221 218 216 216 215 217 216 212 214 217 218 221 225 227 230 235 241 248 253 259 265 267 265 263 259 257 257 258 258 256 255 254 255 253 250 252 253 251 249 247 248 248 248 249 249 250 252 252 250 249 249 250 251 253 254 256 255 255 257 258 258 259 259 260 259 259 259 259 260 261 262 263 265 267 271 273 274 275 276 277 277 278
217 224 221 216 218 217 214 214 211 211 214 213 213 215 216 221 226 229 237 240 241 250 256 264 273 271 267 267 265 262 261 260 259 259 257 254 253 253 251 250 251 250 248 246 245 246 247 247 247 250 252 253 252 250 251 252 253 256 256 255 253 252 253 255 257 257 256 256 257 258 259 259 260 262 263 264 268 271 274 275 275 275 275 274 274 275
224 226 221 216 215 215 215 215 213 212 213 216 219 218 215 221 228 228 234 241 246 255 261 266 276 274 269 269 269 267 262 259 259 259 260 258 253 252 251 250 251 252 251 247 244 243 245 245 246 248 249 249 251 252 253 253 254 255 255 254 253 250 250 252 254 255 255 255 256 257 259 260 262 264 265 267 269 270 270 271 272 272 273 274 273 273
220 223 224 218 213 213 214 216 218 216 212 217 223 219 214 219 224 225 229 236 244 254 262 259 256 272 273 266 264 265 263 261 262 261 263 263 259 254 253 252 253 254 254 251 246 242 242 243 243 245 246 248 250 253 254 255 254 253 254 255 255 254 253 253 254 255 257 256 256 258 260 261 263 263 265 267 267 266 266 267 268 269 272 273 275 275
217 219 220 218 214 212 211 213 218 217 212 219 225 219 214 219 222 223 227 233 241 250 258 259 260 274 275 266 262 265 266 266 265 265 266 266 265 260 257 256 256 257 257 255 249 244 241 241 242 243 246 248 250 252 253 254 255 255 255 256 256 256 256 255 256 257 258 260 260 260 261 262 263 264 265 265 264 264 263 263 265 267 270 272 274 275
216 215 215 214 212 211 214 216 217 215 215 221 226 220 216 221 223 221 223 235 245 255 259 258 259 267 270 270 272 274 272 270 268 268 269 268 267 263 257 255 257 261 262 258 252 245 241 240 242 243 246 249 250 251 252 253 255 255 255 255 254 255 256 256 257 258 260 261 261 262 262 263 264 265 265 265 264 264 264 264 266 268 270 272 273 274
215 219 221 216 210 213 217 217 215 214 216 219 223 223 220 222 224 219 225 243 252 256 254 252 251 256 273 274 274 274 273 274 274 274 272 267 265 264 261 257 257 261 264 262 254 244 238 237 240 244 245 248 249 251 252 253 253 253 253 253 254 255 257 258 258 260 261 261 262 263 264 265 266 266 266 266 266 266 267 267 268 270 271 273 274 274
217 222 223 217 216 220 219 215 215 217 217 215 214 215 214 218 222 222 231 243 253 254 249 250 250 252 274 281 275 272 272 275 278 278 276 269 262 261 260 257 257 257 259 262 258 247 237 234 237 241 243 245 248 249 250 251 251 251 252 253 255 257 258 259 260 261 261 262 262 263 265 266 267 267 267 267 268 268 269 270 270 271 272 272 272 273
217 216 213 215 221 221 214 210 212 213 212 210 206 202 200 202 210 220 229 227 233 251 248 249 249 246 246 252 266 272 271 274 278 279 279 277 269 261 260 260 260 255 252 253 252 247 237 233 235 239 241 243 246 247 248 249 250 251 253 254 256 257 258 260 262 263 263 263 263 264 265 267 268 267 268 268 270 270 271 272 272 272 272 272 272 273
213 214 212 213 215 213 208 200 199 205 206 201 195 189 183 177 194 208 211 207 226 242 227 194 209 233 247 252 258 266 271 275 278 280 279 274 266 259 259 264 263 253 246 244 241 239 236 234 237 239 241 242 244 246 248 250 252 252 253 255 256 257 259 261 262 263 264 263 263 264 264 265 265 265 266 268 269 270 271 272 273 273 273 274 274 275
205 213 212 206 205 208 207 196 191 196 198 196 193 188 184 173 175 203 194 197 242 235 213 187 192 240 257 265 270 270 272 272 268 267 266 264 261 258 256 257 262 258 249 244 239 236 234 235 237 240 242 242 242 244 246 248 251 253 253 254 256 257 258 260 262 263 264 264 265 265 264 264 264 264 265 267 268 270 271 272 273 274 276 276 276 277
190 198 203 204 204 204 206 206 205 202 199 201 202 198 196 190 179 191 192 199 219 221 213 201 202 243 251 259 270 269 277 275 264 257 258 261 261 258 253 248 254 262 257 252 246 240 237 236 237 239 241 243 242 242 242 244 247 250 251 253 254 256 258 260 262 262 263 265 264 264 264 264 265 265 265 266 267 269 271 273 275 277 277 278 278 278
194 196 200 206 210 206 203 208 212 208 200 201 204 203 203 201 200 198 197 207 201 161 199 200 213 238 240 239 233 208 253 295 293 262 251 261 250 234 243 248 257 264 261 258 254 248 244 240 239 241 242 243 243 242 241 241 243 246 248 251 253 255 257 258 260 261 262 263 263 263 264 265 266 267 267 267 268 270 273 275 275 276 277 278 278 278
197 206 202 203 209 211 209 207 208 208 204 200 200 203 205 207 209 205 196 205 194 226 231 214 231 246 251 258 254 245 252 260 263 265 264 265 264 260 260 262 261 260 258 257 254 250 248 244 242 243 243 244 244 243 242 242 242 244 246 249 251 252 253 255 257 258 259 261 262 264 265 266 267 268 269 270 271 272 273 274 275 276 277 278 279 279
197 200 201 200 204 210 213 211 208 210 212 206 201 204 204 206 213 211 207 140 161 243 243 220 235 245 247 256 259 253 258 257 252 258 261 260 263 261 256 253 251 252 255 258 257 252 248 245 244 245 245 246 246 245 244 243 242 243 244 246 248 249 251 253 255 256 258 259 262 265 267 268 268 269 269 270 271 273 273 275 276 277 277 277 278 278
198 190 190 197 202 205 205 205 202 205 211 213 214 212 205 200 201 199 201 205 197 227 256 227 235 242 240 241 241 238 244 231 219 247 256 250 255 261 259 257 257 254 253 254 257 256 252 248 246 246 248 249 249 248 247 246 245 244 245 246 248 250 251 252 254 255 257 259 262 265 267 268 268 269 269 270 271 272 274 275 276 276 276 276 276 277
201 193 184 192 199 200 198 199 198 199 203 209 216 213 207 206 201 197 204 210 200 211 251 243 232 243 248 251 252 251 249 247 255 267 268 262 261 262 259 257 253 250 248 246 249 254 255 254 252 251 252 253 253 251 249 249 248 247 247 248 249 250 252 253 254 255 257 260 262 264 265 265 267 268 269 270 271 272 274 275 275 275 275 275 275 276
202 201 193 188 193 195 195 198 201 201 200 200 204 202 202 205 202 203 211 212 204 206 236 249 256 249 254 259 258 258 258 255 254 256 258 259 253 239 236 243 243 243 246 244 244 249 253 257 259 257 258 258 257 256 253 251 250 250 249 250 250 252 253 255 256 257 258 260 262 263 264 265 266 267 268 269 270 272 274 275 275 275 274 273 274 275
201 203 198 187 187 191 197 204 208 208 206 204 204 201 200 199 194 196 211 213 216 226 226 231 270 256 249 246 251 260 260 256 257 250 242 240 230 226 240 249 246 244 246 245 245 247 250 254 257 258 259 261 261 260 258 256 255 255 255 255 255 255 256 257 258 258 259 259 261 263 264 265 266 268 269 270 271 272 274 275 276 275 274 273 273 274
203 203 199 190 190 193 198 205 208 209 209 208 206 205 203 197 194 195 200 207 214 226 236 242 268 264 258 253 253 257 256 258 262 240 222 225 251 262 259 257 261 258 252 252 250 250 251 252 253 255 256 259 261 262 262 261 261 261 261 261 261 260 259 259 258 258 258 259 260 262 264 265 267 269 270 271 271 271 273 275 276 276 275 274 273 273
203 203 193 183 190 194 195 201 205 206 207 204 202 204 202 200 202 205 210 213 210 218 226 228 252 257 256 249 246 250 249 248 243 220 218 247 265 266 271 279 284 274 261 260 257 254 253 252 252 253 254 257 259 260 261 261 262 263 264 264 264 263 262 260 259 259 259 260 261 262 263 265 267 269 271 272 272 272 273 276 276 275 276 275 273 271
205 202 187 171 177 193 192 195 199 201 203 203 203 204 203 203 206 208 213 217 218 222 219 209 240 246 240 229 234 237 229 226 229 230 234 247 253 257 273 284 286 276 273 273 264 257 254 251 250 252 254 257 259 260 259 259 260 262 264 265 265 265 265 264 263 263 262 262 262 263 265 266 267 269 271 273 273 273 274 275 275 274 275 275 273 271
208 202 192 184 174 181 191 192 193 197 201 204 207 208 208 208 207 208 211 211 220 228 219 212 232 241 239 235 232 227 216 213 223 236 241 245 249 254 264 276 281 283 289 285 271 262 257 253 252 250 252 255 258 260 262 263 264 265 266 267 266 266 266 266 267 266 265 265 264 265 266 267 268 269 271 272 273 273 273 274 274 273 274 273 272 271
211 208 204 201 198 199 199 199 198 198 198 201 206 210 212 212 210 209 209 210 219 227 221 221 232 240 242 237 225 216 210 206 222 244 251 250 248 247 254 267 280 286 290 288 279 271 266 263 262 258 256 256 256 259 261 263 266 267 267 266 265 265 266 265 266 267 267 267 267 266 267 267 268 269 271 272 272 273 273 273 273 274 274 274 274 273
211 211 212 210 210 211 210 206 203 200 200 204 207 209 210 210 208 208 211 217 221 224 228 232 234 240 244 240 228 221 217 218 238 252 252 250 251 253 258 268 280 284 283 283 281 278 277 278 277 273 268 264 262 262 262 262 265 267 268 268 267 268 268 268 266 265 265 265 265 265 266 267 268 269 270 271 272 272 272 272 273 273 274 274 275 275
214 214 215 214 214 214 216 219 211 205 206 210 211 210 210 210 207 208 215 222 222 221 232 238 236 240 247 246 241 241 236 235 248 254 249 251 257 261 265 272 278 278 273 274 275 275 279 282 280 276 273 272 272 271 269 268 268 269 270 270 271 271 271 270 267 264 262 261 261 262 264 265 266 268 269 270 271 271 271 272 273 273 274 274 275 276
220 221 218 215 216 215 214 221 221 212 209 210 211 211 211 210 211 214 220 224 223 223 233 239 238 242 250 251 248 249 245 240 247 253 252 254 259 263 269 272 271 268 265 269 273 274 277 279 275 270 267 268 271 271 271 270 269 270 269 268 268 267 266 267 266 264 262 260 260 261 262 265 266 268 270 271 273 274 275 276 276 276 276 276 277 277
220 224 223 217 217 218 216 219 226 221 213 210 211 212 211 210 212 215 220 224 222 224 233 238 239 243 249 250 249 251 249 244 247 252 253 255 260 264 267 267 264 262 262 269 276 275 275 273 268 265 263 263 265 266 267 268 269 270 268 266 265 262 260 260 260 261 261 260 261 262 263 266 268 270 273 275 277 278 279 281 281 281 281 279 279 279
217 218 221 216 213 217 216 217 222 223 219 213 210 210 210 210 212 216 221 224 223 225 230 233 238 245 249 250 251 253 253 251 251 252 253 256 259 262 264 264 262 260 263 271 275 271 268 266 264 263 260 260 261 262 264 266 267 268 268 266 266 264 262 260 258 259 260 261 263 265 266 269 271 273 276 277 279 281 282 283 283 282 282 281 280 280
222 214 213 209 208 215 216 214 214 215 212 209 211 214 215 215 217 220 224 227 227 227 228 230 237 246 250 252 253 253 253 253 253 254 256 258 259 261 262 262 260 261 265 269 266 263 263 262 262 260 257 257 259 260 261 262 263 264 265 265 266 266 264 262 261 261 262 264 267 269 270 273 274 276 278 280 281 283 284 285 284 283 282 281 281 281
227 219 213 207 208 216 213 207 205 202 201 216 220 221 221 220 220 221 224 228 228 228 231 237 244 249 251 252 254 253 255 256 256 258 259 259 260 261 259 257 257 261 263 261 259 259 259 258 257 256 255 257 259 260 260 260 260 261 262 263 264 266 266 266 266 265 264 265 267 269 272 275 277 279 280 281 282 283 284 284 282 281 281 281 283 284
225 218 214 209 209 212 203 195 191 199 216 224 226 224 223 225 226 227 230 233 231 230 234 240 245 246 247 251 254 255 258 260 261 261 260 259 260 260 258 255 255 256 254 253 255 257 256 256 255 255 256 258 258 259 259 260 260 261 261 261 262 264 266 266 267 267 267 267 268 270 272 275 278 280 280 280 281 281 281 279 279 280 283 286 289 291
230 216 211 206 205 204 190 182 187 217 217 221 225 221 217 219 221 224 229 234 234 233 235 240 246 248 249 252 255 256 259 261 261 261 260 258 259 260 256 250 248 250 250 249 252 253 254 257 258 258 259 258 257 259 259 260 262 262 262 262 261 261 262 264 266 268 269 270 271 272 274 277 278 278 278 278 278 277 276 277 280 285 288 291 295 297
240 224 214 206 204 201 185 186 204 217 216 221 223 218 217 220 221 219 224 231 234 233 235 243 251 251 249 251 254 254 254 256 256 256 255 254 256 256 251 243 240 245 249 249 250 252 254 257 259 260 260 259 260 261 261 262 263 264 264 264 263 263 262 262 264 267 269 272 274 275 276 278 278 276 274 273 271 271 274 279 284 288 289 291 294 296
241 234 222 214 211 205 190 191 205 217 229 226 223 222 225 229 229 224 224 233 238 236 238 245 251 250 246 246 248 249 249 251 253 253 250 249 250 250 247 243 238 241 246 247 249 252 255 256 257 258 260 261 263 264 264 265 266 266 267 268 268 268 267 266 266 267 269 271 273 274 275 276 275 272 267 265 266 271 278 283 287 290 291 291 293 294
242 242 232 225 220 209 199 198 201 212 227 228 228 229 228 228 229 223 222 236 244 243 243 248 251 250 247 243 244 245 246 248 251 252 250 248 250 250 249 248 244 241 244 247 249 253 254 253 253 256 258 261 264 266 268 269 269 270 272 273 274 274 273 272 271 270 269 269 268 269 270 268 265 261 258 260 266 273 279 284 287 290 290 290 290 288
237 242 235 228 225 218 212 214 216 220 229 233 235 234 231 228 224 212 211 241 247 245 244 246 247 248 247 245 244 243 243 247 251 254 254 252 255 256 254 253 251 247 247 249 250 251 250 249 251 254 256 259 261 264 267 269 271 273 274 275 276 275 274 273 272 270 268 264 260 258 258 256 252 250 253 259 266 271 277 282 285 286 286 285 284 282
228 232 232 229 228 225 218 219 229 232 233 236 238 237 231 220 207 199 216 244 249 248 246 245 245 247 246 245 245 246 247 250 254 257 258 257 259 258 256 255 253 251 250 251 250 248 247 248 251 252 254 256 259 262 265 267 269 270 269 269 269 268 268 269 268 265 261 255 248 245 245 246 246 249 254 260 265 271 276 279 281 282 281 280 278 277
226 225 228 226 225 225 223 222 233 242 240 237 238 239 224 204 202 215 233 245 249 250 251 251 251 251 250 249 250 252 254 255 257 258 258 258 257 253 251 252 251 252 252 251 249 249 249 249 250 251 253 256 259 261 262 263 264 264 263 262 261 261 263 264 262 258 252 246 240 237 239 244 247 252 258 263 267 272 275 276 278 277 277 275 274 275
238 229 225 224 222 219 219 216 221 242 243 237 228 221 215 213 221 235 242 243 246 248 250 254 257 258 258 257 255 255 257 259 259 257 257 256 251 244 244 247 249 250 248 247 247 249 248 248 249 251 254 256 257 257 256 256 257 258 256 256 256 259 261 261 259 254 246 240 235 235 239 247 252 257 262 265 268 271 272 273 273 273 272 271 272 274
244 235 227 229 225 214 208 214 224 234 241 241 232 227 228 232 239 245 245 245 247 249 248 248 251 254 254 253 251 253 258 264 262 256 249 245 241 238 239 243 245 245 243 243 245 245 244 246 249 252 253 252 252 252 252 253 254 254 253 254 255 259 261 260 258 253 244 237 234 236 242 250 255 259 261 263 265 266 267 268 269 269 269 269 269 271
246 244 239 240 237 229 227 232 235 236 240 245 247 245 246 247 249 251 251 252 255 256 253 250 248 244 241 243 250 255 259 263 265 258 242 231 231 234 236 238 241 242 241 241 241 241 242 245 247 247 247 245 246 248 250 252 252 252 252 252 254 257 258 257 255 251 243 237 236 239 244 249 253 256 257 258 260 261 263 265 266 267 268 268 269 270
255 253 249 248 248 248 249 246 242 240 241 243 247 250 249 248 250 254 256 256 258 261 259 253 249 247 246 250 256 257 256 256 257 253 239 226 223 227 231 233 236 238 238 238 240 242 243 242 241 241 241 241 242 245 247 249 250 251 251 252 253 254 255 254 252 248 244 241 241 243 245 248 251 253 254 255 257 259 261 263 264 266 268 269 272 274
256 254 252 251 249 249 249 247 244 243 242 241 242 243 239 239 243 248 252 252 253 255 253 250 250 253 254 254 252 250 249 250 251 247 235 224 220 223 226 227 230 232 234 237 241 243 241 238 237 238 239 240 243 245 246 247 248 249 250 251 253 254 254 253 251 248 247 246 245 246 247 248 250 251 252 253 254 256 258 259 261 264 267 269 272 275
256 255 249 247 247 247 248 250 250 248 244 243 242 241 238 236 239 243 246 247 248 249 249 249 251 251 250 247 242 241 243 246 246 241 230 219 215 216 217 219 224 229 234 238 241 241 238 236 236 237 239 243 246 247 247 246 245 246 248 249 252 254 254 254 252 249 247 246 245 246 246 247 247 248 248 249 251 252 255 257 260 264 267 269 272 274
256 252 248 247 251 255 255 254 253 251 248 245 242 240 237 233 234 239 241 241 243 246 245 243 242 243 242 239 237 238 238 236 235 231 221 211 209 212 216 223 229 232 235 237 237 235 235 235 236 238 241 244 245 245 245 243 242 243 244 245 248 250 250 251 249 246 244 243 243 243 243 243 244 245 246 249 252 254 257 260 263 266 269 271 273 275
248 247 250 249 247 250 251 249 248 249 250 248 244 242 240 236 234 234 233 232 234 236 235 234 233 232 231 228 227 229 228 224 221 219 215 216 221 226 231 235 236 236 235 233 232 232 232 233 235 237 239 241 242 242 241 240 239 239 239 240 241 242 242 243 244 243 243 243 243 244 245 246 247 250 253 255 257 260 262 264 267 269 270 272 273 276
248 249 250 247 245 247 249 249 252 255 256 255 254 251 248 245 242 240 238 234 232 232 231 230 229 226 223 223 224 226 230 232 233 231 231 233 237 240 241 241 237 233 231 227 226 227 228 229 232 234 235 236 236 236 236 236 236 235 235 235 236 238 240 243 245 247 248 248 249 250 251 252 254 255 257 258 259 261 263 264 266 268 270 273 275 277
Height
3123 3125 3125 3126 3128 3132 3136 3140 3143 3146 3148 3150 3152 3152 3153 3153 3153 3154 3155 3156 3157 3156 3156 3157 3157 3156 3155 3156 3158 3160 3160 3159 3159 3160 3161 3163 3164 3164 3165 3166 3167 3168 3171 3173 3173 3172 3172 3173 3174 3174 3175 3176 3177 3179 3180 3180 3181 3182 3184 3185 3186 3187 3187 3187 3188 3188 3189 3190 3190 3191 3192 3192 3193 3194 3194 3194 3195 3195 3196 3196 3197 3198 3199 3199 3199 3199
3121 3120 3120 3123 3128 3132 3136 3139 3142 3145 3147 3148 3150 3150 3151 3152 3152 3153 3154 3154 3155 3154 3155 3155 3154 3153 3153 3154 3155 3156 3156 3156 3156 3156 3157 3159 3161 3162 3162 3163 3164 3166 3168 3169 3169 3169 3170 3170 3171 3172 3173 3174 3175 3176 3177 3178 3179 3180 3181 3183 3184 3184 3185 3185 3186 3186 3187 3188 3189 3190 3190 3190 3191 3191 3192 3192 3193 3193 3193 3194 3195 3196 3197 3197 3197 3197
3116 3114 3117 3123 3127 3131 3134 3137 3140 3142 3145 3147 3148 3149 3149 3151 3152 3152 3152 3152 3153 3152 3153 3153 3151 3150 3150 3150 3151 3152 3152 3152 3154 3154 3154 3155 3157 3158 3159 3159 3161 3163 3164 3165 3166 3166 3167 3168 3169 3169 3170 3171 3173 3174 3174 3175 3176 3177 3178 3180 3182 3182 3182 3183 3184 3184 3185 3186 3187 3187 3188 3188 3189 3189 3190 3190 3190 3190 3191 3192 3193 3193 3194 3195 3195 3195
3108 3107 3113 3121 3124 3127 3131 3134 3137 3140 3142 3144 3145 3146 3147 3150 3151 3151 3150 3151 3152 3151 3151 3151 3148 3146 3146 3146 3146 3148 3149 3149 3151 3151 3152 3152 3153 3154 3155 3156 3157 3158 3160 3161 3162 3163 3164 3165 3166 3166 3167 3169 3170 3171 3171 3173 3174 3175 3177 3178 3179 3180 3180 3181 3181 3182 3183 3184 3184 3184 3185 3185 3186 3186 3187 3187 3187 3188 3189 3190 3191 3191 3192 3192 3193 3193
3103 3105 3112 3118 3120 3123 3127 3131 3134 3136 3138 3141 3143 3144 3145 3149 3150 3150 3150 3150 3150 3149 3148 3149 3146 3141 3142 3142 3142 3145 3146 3145 3147 3148 3148 3149 3149 3150 3151 3152 3153 3154 3155 3156 3158 3159 3160 3161 3162 3164 3165 3166 3167 3168 3169 3171 3172 3173 3174 3175 3176 3177 3178 3178 3179 3180 3180 3181 3181 3182 3182 3182 3183 3183 3184 3185 3185 3186 3187 3187 3188 3188 3189 3189 3190 3190
3102 3106 3111 3114 3115 3119 3124 3126 3129 3131 3134 3137 3138 3140 3144 3148 3149 3149 3149 3149 3149 3147 3146 3149 3145 3136 3137 3139 3139 3141 3141 3141 3143 3143 3143 3145 3146 3146 3146 3147 3149 3150 3151 3152 3153 3155 3155 3157 3159 3160 3162 3162 3163 3165 3167 3168 3170 3171 3171 3172 3173 3174 3175 3176 3176 3177 3177 3178 3178 3178 3179 3179 3180 3180 3181 3182 3183 3184 3184 3184 3184 3184 3185 3186 3187 3187
3100 3104 3108 3110 3112 3117 3120 3121 3124 3128 3131 3132 3132 3138 3143 3146 3148 3147 3147 3147 3146 3145 3145 3146 3144 3136 3132 3134 3136 3138 3138 3138 3139 3139 3140 3141 3142 3142 3142 3143 3145 3146 3146 3147 3149 3150 3151 3153 3155 3156 3158 3159 3161 3163 3165 3166 3167 3167 3168 3169 3170 3171 3172 3173 3174 3174 3174 3175 3175 3175 3176 3176 3177 3177 3178 3180 3180 3181 3181 3181 3181 3181 3181 3182 3183 3183
3094 3099 3103 3107 3111 3113 3114 3115 3119 3124 3127 3127 3130 3137 3141 3143 3146 3146 3145 3145 3144 3144 3143 3142 3143 3137 3127 3127 3133 3135 3134 3135 3135 3136 3137 3138 3139 3139 3139 3140 3141 3142 3143 3143 3144 3145 3147 3148 3150 3152 3155 3157 3159 3161 3161 3162 3163 3164 3165 3166 3167 3168 3169 3170 3171 3171 3171 3172 3172 3173 3173 3173 3173 3174 3175 3176 3177 3177 3177 3177 3177 3177 3178 3178 3179 3180
3089 3092 3095 3101 3105 3107 3107 3111 3116 3122 3125 3126 3131 3137 3140 3143 3145 3144 3144 3143 3142 3143 3140 3138 3142 3137 3122 3121 3129 3129 3129 3130 3131 3133 3134 3134 3135 3136 3136 3137 3137 3138 3138 3138 3139 3140 3143 3145 3147 3149 3152 3154 3156 3157 3158 3159 3160 3161 3162 3163 3163 3164 3166 3167 3168 3168 3168 3169 3169 3169 3169 3170 3170 3171 3172 3173 3173 3173 3174 3174 3175 3175 3175 3175 3176 3176
3086 3088 3092 3096 3099 3100 3104 3111 3116 3120 3123 3127 3132 3136 3140 3142 3142 3143 3142 3141 3142 3140 3135 3135 3140 3136 3119 3116 3124 3125 3123 3126 3127 3130 3130 3131 3132 3132 3133 3133 3133 3134 3134 3133 3133 3135 3138 3141 3144 3146 3148 3150 3152 3153 3155 3156 3157 3157 3158 3159 3160 3161 3162 3163 3164 3164 3165 3165 3166 3166 3166 3166 3167 3168 3168 3169 3169 3170 3170 3171 3172 3172 3173 3173 3173 3173
3085 3089 3092 3095 3098 3101 3106 3111 3115 3119 3123 3127 3132 3134 3138 3140 3140 3141 3139 3140 3142 3134 3129 3132 3136 3137 3124 3112 3116 3120 3120 3123 3124 3126 3127 3127 3128 3129 3129 3130 3130 3130 3130 3129 3129 3130 3133 3137 3140 3143 3144 3146 3148 3149 3151 3151 3152 3153 3154 3155 3156 3158 3159 3159 3160 3161 3162 3162 3162 3163 3163 3163 3164 3164 3164 3165 3165 3166 3167 3167 3168 3169 3170 3170 3170 3170
3084 3086 3089 3093 3098 3101 3105 3110 3114 3119 3122 3125 3128 3130 3134 3137 3138 3140 3138 3139 3138 3127 3124 3128 3132 3137 3124 3108 3111 3117 3118 3121 3121 3122 3124 3124 3125 3126 3126 3126 3126 3127 3127 3126 3126 3127 3130 3133 3136 3138 3139 3142 3144 3144 3146 3147 3149 3150 3151 3152 3153 3154 3155 3156 3157 3157 3158 3159 3159 3160 3160 3160 3161 3161 3161 3161 3162 3163 3163 3164 3165 3165 3166 3166 3166 3167
3081 3082 3085 3090 3095 3097 3101 3106 3112 3116 3118 3120 3123 3125 3129 3133 3135 3134 3132 3132 3129 3124 3124 3126 3130 3130 3114 3104 3112 3115 3115 3118 3118 3119 3120 3120 3121 3122 3122 3122 3123 3124 3123 3124 3124 3124 3126 3128 3131 3133 3134 3137 3139 3140 3142 3144 3145 3146 3147 3148 3149 3151 3152 3152 3153 3153 3154 3155 3156 3157 3157 3157 3158 3157 3157 3158 3158 3159 3159 3160 3160 3161 3161 3162 3162 3162
3078 3080 3082 3086 3090 3094 3097 3100 3103 3107 3111 3113 3113 3115 3118 3122 3125 3126 3126 3126 3124 3123 3124 3127 3130 3123 3107 3105 3110 3111 3112 3114 3113 3114 3114 3115 3117 3117 3119 3119 3119 3120 3120 3120 3121 3122 3123 3124 3126 3128 3130 3132 3134 3136 3138 3140 3141 3142 3143 3144 3145 3147 3148 3148 3149 3150 3150 3151 3153 3153 3153 3154 3154 3154 3154 3154 3155 3156 3156 3156 3156 3157 3157 3158 3158 3158
3068 3069 3070 3075 3080 3085 3088 3090 3094 3097 3102 3104 3105 3107 3108 3110 3114 3117 3119 3120 3119 3121 3123 3127 3126 3114 3105 3106 3107 3107 3109 3109 3109 3110 3110 3111 3112 3113 3115 3116 3117 3117 3117 3117 3118 3119 3120 3121 3122 3123 3125 3127 3128 3131 3133 3135 3136 3138 3139 3140 3141 3143 3145 3144 3145 3146 3147 3148 3149 3149 3149 3150 3150 3151 3151 3151 3152 3152 3152 3152 3153 3153 3153 3153 3154 3154
3062 3061 3063 3070 3074 3077 3081 3085 3092 3096 3099 3101 3105 3106 3105 3106 3109 3111 3113 3113 3116 3119 3119 3120 3114 3103 3102 3105 3106 3108 3108 3108 3109 3109 3109 3110 3110 3111 3113 3113 3115 3114 3114 3114 3115 3116 3117 3117 3119 3119 3121 3122 3123 3126 3127 3129 3131 3133 3135 3136 3138 3140 3140 3140 3141 3142 3143 3144 3145 3145 3146 3147 3147 3147 3147 3148 3148 3149 3149 3149 3148 3149 3149 3149 3149 3150
3060 3062 3064 3069 3073 3075 3079 3083 3089 3091 3093 3097 3100 3102 3103 3107 3108 3110 3112 3113 3116 3117 3113 3111 3105 3100 3102 3102 3102 3107 3107 3107 3109 3107 3108 3110 3109 3110 3111 3111 3112 3111 3111 3111 3112 3113 3113 3114 3115 3116 3117 3118 3119 3121 3122 3124 3126 3128 3130 3132 3133 3135 3135 3136 3137 3138 3139 3140 3140 3141 3142 3143 3143 3143 3144 3144 3145 3145 3145 3144 3144 3145 3145 3145 3145 3145
3054 3059 3061 3064 3067 3071 3078 3083 3085 3087 3089 3091 3094 3097 3103 3108 3109 3112 3114 3114 3117 3115 3108 3104 3100 3100 3102 3099 3098 3102 3102 3103 3105 3104 3106 3107 3107 3107 3108 3109 3109 3108 3109 3109 3109 3110 3110 3111 3112 3112 3113 3114 3115 3117 3118 3120 3121 3123 3124 3126 3128 3129 3131 3132 3133 3134 3135 3136 3136 3137 3138 3139 3139 3139 3140 3140 3140 3140 3140 3140 3140 3141 3141 3141 3141 3141
3052 3056 3060 3062 3064 3068 3075 3080 3081 3083 3085 3086 3089 3094 3098 3101 3103 3107 3110 3109 3111 3111 3103 3098 3097 3096 3095 3093 3095 3100 3100 3100 3102 3103 3104 3104 3105 3105 3105 3106 3106 3106 3107 3107 3107 3107 3107 3108 3109 3109 3110 3111 3112 3113 3114 3116 3117 3118 3120 3121 3123 3125 3126 3128 3129 3130 3131 3131 3132 3133 3133 3134 3134 3135 3135 3135 3136 3135 3135 3136 3136 3136 3136 3136 3136 3136
3049 3053 3056 3058 3061 3066 3070 3071 3072 3074 3079 3084 3089 3092 3093 3094 3096 3098 3099 3100 3102 3104 3100 3096 3094 3089 3085 3087 3092 3097 3099 3100 3100 3101 3102 3102 3102 3103 3103 3103 3104 3104 3104 3104 3105 3105 3104 3105 3106 3107 3108 3108 3109 3110 3111 3112 3113 3114 3116 3117 3119 3121 3122 3123 3124 3125 3126 3127 3128 3128 3129 3130 3130 3130 3130 3131 3131 3130 3131 3131 3131 3131 3131 3131 3131 3131
3047 3048 3051 3054 3058 3060 3060 3060 3063 3066 3070 3076 3080 3083 3085 3089 3092 3093 3095 3095 3097 3099 3097 3095 3090 3082 3081 3085 3088 3092 3096 3098 3098 3098 3099 3099 3099 3101 3101 3101 3102 3102 3102 3102 3103 3103 3103 3103 3104 3105 3105 3106 3106 3107 3108 3109 3110 3111 3112 3114 3115 3117 3118 3119 3120 3121 3122 3123 3123 3124 3125 3125 3125 3126 3126 3125 3126 3126 3126 3126 3126 3126 3126 3126 3126 3126
3042 3044 3047 3050 3050 3051 3052 3055 3059 3062 3064 3067 3069 3071 3075 3081 3086 3090 3093 3093 3094 3094 3094 3094 3086 3076 3080 3084 3085 3089 3093 3093 3094 3095 3095 3096 3097 3098 3099 3099 3099 3100 3100 3100 3100 3101 3101 3102 3102 3103 3103 3103 3103 3104 3105 3106 3107 3108 3109 3111 3112 3113 3114 3116 3116 3117 3117 3118 3119 3119 3120 3121 3121 3121 3121 3121 3121 3121 3121 3121 3121 3121 3121 3121 3121 3121
3039 3040 3042 3044 3045 3048 3051 3054 3058 3061 3064 3067 3068 3070 3074 3078 3081 3085 3087 3088 3091 3091 3091 3093 3084 3071 3074 3081 3082 3086 3089 3090 3092 3092 3092 3094 3095 3096 3096 3097 3097 3097 3098 3098 3098 3099 3099 3099 3100 3100 3100 3101 3101 3102 3102 3103 3104 3106 3106 3108 3108 3109 3111 3111 3112 3112 3113 3114 3114 3115 3116 3116 3117 3117 3117 3117 3117 3117 3117 3117 3117 3117 3116 3116 3116 3116
3035 3036 3037 3040 3044 3047 3048 3050 3054 3058 3061 3063 3065 3068 3072 3074 3075 3079 3082 3084 3087 3086 3086 3091 3082 3068 3069 3076 3078 3082 3086 3088 3089 3089 3090 3092 3092 3093 3094 3094 3095 3095 3096 3096 3096 3096 3096 3096 3097 3097 3097 3098 3099 3099 3100 3101 3102 3102 3103 3104 3104 3105 3106 3106 3107 3108 3109 3110 3110 3111 3112 3112 3112 3112 3112 3113 3113 3112 3113 3113 3112 3112 3112 3111 3111 3111
3030 3030 3032 3037 3042 3044 3045 3047 3049 3053 3056 3058 3061 3065 3068 3070 3074 3078 3081 3083 3081 3077 3079 3083 3075 3064 3067 3073 3075 3079 3083 3085 3086 3087 3088 3090 3090 3091 3091 3092 3093 3093 3093 3094 3094 3094 3094 3094 3094 3094 3095 3096 3096 3097 3097 3098 3098 3099 3100 3100 3101 3101 3102 3102 3103 3104 3105 3106 3106 3107 3107 3108 3108 3108 3108 3108 3108 3108 3108 3107 3107 3107 3107 3106 3106 3106
3024 3024 3024 3025 3028 3030 3031 3030 3031 3038 3046 3050 3054 3057 3060 3063 3066 3068 3072 3075 3072 3069 3072 3073 3065 3061 3066 3070 3072 3076 3079 3081 3083 3084 3085 3088 3089 3089 3089 3089 3090 3090 3091 3091 3091 3091 3091 3091 3092 3092 3092 3093 3094 3094 3094 3095 3095 3095 3096 3097 3097 3098 3099 3099 3100 3100 3101 3102 3102 3102 3103 3103 3103 3104 3104 3104 3103 3103 3103 3103 3103 3102 3102 3102 3102 3102
3020 3019 3019 3017 3016 3017 3017 3018 3020 3026 3033 3039 3043 3047 3051 3054 3058 3062 3065 3065 3062 3063 3066 3065 3062 3062 3064 3067 3070 3073 3075 3077 3080 3082 3082 3084 3086 3087 3087 3087 3088 3088 3087 3087 3088 3088 3088 3089 3089 3089 3090 3091 3091 3091 3091 3091 3092 3092 3093 3093 3094 3095 3095 3096 3097 3097 3098 3098 3098 3098 3098 3099 3099 3099 3099 3099 3099 3099 3099 3098 3099 3098 3098 3098 3098 3098
3015 3014 3015 3016 3017 3019 3020 3021 3023 3026 3030 3033 3037 3041 3046 3051 3057 3060 3059 3057 3060 3064 3063 3061 3062 3060 3059 3064 3069 3071 3072 3074 3077 3079 3079 3080 3082 3083 3083 3085 3086 3086 3085 3085 3085 3084 3085 3085 3086 3086 3087 3088 3088 3088 3088 3088 3088 3089 3089 3090 3091 3091 3092 3093 3093 3094 3094 3094 3094 3094 3094 3095 3095 3095 3095 3095 3095 3094 3094 3094 3094 3094 3094 3094 3093 3094
3010 3009 3011 3013 3015 3019 3022 3023 3025 3027 3028 3031 3033 3037 3042 3046 3050 3052 3052 3053 3058 3060 3056 3055 3059 3056 3052 3058 3063 3064 3067 3069 3072 3075 3076 3076 3078 3078 3079 3082 3084 3084 3084 3083 3082 3082 3082 3082 3083 3083 3084 3084 3084 3084 3084 3085 3085 3086 3086 3087 3087 3088 3088 3089 3090 3090 3091 3091 3091 3091 3091 3091 3091 3091 3091 3091 3091 3090 3090 3090 3090 3090 3090 3089 3089 3089
3007 3006 3008 3011 3013 3016 3019 3021 3023 3025 3027 3029 3031 3033 3036 3039 3041 3043 3045 3048 3052 3054 3051 3051 3053 3048 3044 3049 3055 3058 3062 3064 3067 3070 3071 3071 3073 3075 3077 3079 3081 3081 3081 3080 3080 3080 3080 3080 3080 3080 3081 3080 3081 3081 3081 3082 3082 3083 3084 3084 3085 3085 3085 3086 3086 3087 3087 3087 3088 3088 3088 3088 3088 3088 3088 3087 3087 3087 3087 3087 3086 3086 3086 3086 3085 3085
3004 3003 3005 3009 3010 3011 3014 3018 3020 3022 3023 3025 3027 3030 3034 3037 3039 3040 3042 3045 3049 3050 3047 3046 3046 3040 3038 3045 3052 3055 3058 3060 3062 3064 3065 3067 3070 3072 3074 3075 3077 3077 3077 3077 3077 3076 3076 3076 3077 3077 3077 3077 3077 3078 3078 3079 3080 3080 3081 3081 3082 3082 3082 3083 3083 3084 3084 3085 3085 3085 3085 3085 3085 3085 3085 3085 3085 3085 3084 3084 3084 3084 3083 3083 3082 3082
2999 3000 3002 3005 3007 3006 3009 3013 3014 3018 3021 3021 3022 3026 3030 3033 3034 3034 3034 3036 3039 3039 3039 3041 3040 3034 3034 3042 3048 3050 3052 3054 3055 3058 3061 3063 3066 3069 3069 3071 3073 3073 3073 3073 3073 3072 3072 3073 3073 3073 3073 3073 3073 3074 3075 3076 3077 3078 3078 3078 3078 3079 3080 3080 3081 3081 3082 3082 3082 3082 3082 3082 3082 3082 3082 3082 3082 3082 3082 3081 3081 3080 3080 3079 3079 3078
2996 2996 2997 3000 3001 3001 3003 3007 3010 3015 3017 3012 3011 3015 3018 3020 3022 3024 3025 3027 3029 3031 3033 3034 3031 3028 3032 3040 3043 3044 3046 3047 3049 3053 3056 3058 3061 3064 3065 3067 3069 3068 3069 3069 3069 3069 3069 3069 3069 3070 3069 3069 3070 3071 3072 3073 3074 3074 3075 3075 3075 3076 3077 3078 3078 3079 3079 3079 3079 3079 3079 3079 3079 3079 3079 3079 3079 3079 3078 3078 3077 3077 3077 3076 3076 3075
2992 2993 2993 2996 2996 2996 2999 3004 3009 3009 3003 2997 2997 3003 3006 3009 3013 3016 3017 3020 3024 3028 3030 3029 3026 3028 3033 3035 3036 3039 3041 3042 3045 3048 3051 3053 3056 3059 3061 3063 3063 3063 3064 3065 3064 3065 3065 3065 3065 3065 3065 3066 3067 3068 3068 3069 3070 3071 3071 3072 3073 3073 3074 3075 3075 3076 3076 3076 3076 3076 3076 3076 3076 3076 3076 3076 3076 3076 3075 3075 3074 3074 3073 3073 3072 3072
2988 2989 2990 2992 2993 2994 2996 3001 3004 2998 2991 2990 2994 2999 3004 3010 3014 3017 3017 3020 3024 3025 3025 3023 3021 3024 3029 3030 3032 3036 3037 3039 3042 3044 3046 3048 3050 3054 3056 3057 3058 3059 3059 3060 3060 3061 3061 3061 3061 3061 3062 3063 3063 3063 3064 3065 3065 3066 3068 3069 3070 3070 3071 3071 3071 3072 3072 3072 3072 3072 3072 3072 3073 3073 3073 3073 3073 3072 3072 3072 3071 3071 3070 3070 3070 3070
2987 2987 2987 2987 2989 2991 2992 2994 2993 2990 2988 2990 2993 2998 3006 3012 3016 3018 3015 3012 3012 3013 3015 3015 3016 3022 3028 3027 3029 3033 3035 3037 3038 3038 3040 3043 3045 3048 3052 3053 3054 3054 3055 3056 3057 3057 3057 3056 3057 3058 3058 3059 3059 3059 3060 3060 3061 3062 3063 3064 3065 3066 3067 3067 3067 3067 3068 3068 3068 3068 3068 3069 3069 3070 3070 3069 3069 3069 3069 3069 3069 3068 3068 3068 3067 3067
2984 2985 2984 2984 2985 2986 2987 2988 2988 2988 2987 2987 2988 2992 2997 2998 2999 3002 3000 2996 2999 3007 3014 3016 3016 3020 3024 3023 3025 3030 3032 3032 3030 3029 3033 3037 3039 3043 3047 3049 3051 3051 3051 3052 3052 3052 3052 3052 3053 3053 3053 3054 3054 3055 3055 3056 3056 3057 3058 3059 3060 3061 3062 3063 3063 3063 3064 3064 3064 3064 3065 3065 3066 3066 3066 3066 3066 3066 3066 3066 3066 3065 3065 3065 3064 3064
2981 2982 2983 2983 2981 2982 2984 2985 2987 2987 2982 2979 2981 2984 2988 2990 2994 2999 2999 2995 2999 3008 3012 3011 3009 3011 3014 3018 3022 3025 3027 3025 3021 3019 3026 3031 3035 3039 3043 3046 3047 3047 3047 3048 3047 3047 3048 3049 3049 3049 3049 3049 3050 3051 3051 3052 3052 3053 3053 3054 3055 3056 3056 3058 3059 3059 3060 3060 3060 3060 3061 3061 3062 3062 3062 3063 3063 3063 3063 3062 3062 3062 3062 3061 3061 3060
2978 2979 2981 2981 2979 2979 2980 2979 2980 2979 2974 2973 2977 2982 2988 2992 2996 3004 3006 2996 2991 2999 3005 3004 3003 3003 3008 3014 3017 3020 3022 3018 3010 3011 3020 3028 3032 3036 3039 3041 3043 3044 3043 3043 3043 3043 3044 3044 3044 3045 3045 3046 3046 3046 3047 3047 3047 3048 3049 3050 3050 3051 3051 3052 3053 3054 3054 3055 3055 3056 3056 3057 3057 3058 3058 3058 3059 3059 3059 3058 3058 3058 3058 3057 3057 3056
2974 2976 2977 2977 2976 2977 2977 2976 2975 2973 2969 2971 2977 2982 2986 2989 2994 3004 3004 2987 2978 2989 2998 2997 2995 2996 3002 3009 3012 3013 3012 3005 3001 3007 3019 3027 3030 3032 3034 3036 3037 3038 3038 3038 3038 3039 3040 3040 3040 3041 3041 3042 3042 3042 3043 3043 3044 3045 3045 3045 3046 3046 3046 3047 3047 3047 3048 3049 3050 3051 3051 3052 3052 3053 3053 3054 3054 3054 3054 3054 3054 3054 3054 3053 3053 3052
2970 2972 2973 2974 2974 2975 2975 2974 2973 2969 2967 2971 2976 2978 2982 2989 2993 2995 2989 2974 2971 2983 2991 2990 2989 2992 2999 3004 3005 3003 3000 2999 3002 3009 3017 3022 3025 3027 3028 3029 3031 3032 3032 3032 3034 3034 3035 3035 3036 3036 3037 3037 3038 3039 3039 3039 3040 3041 3041 3041 3042 3042 3042 3042 3042 3042 3043 3043 3045 3046 3046 3047 3048 3048 3049 3049 3050 3050 3050 3050 3050 3050 3050 3049 3049 3049
2968 2969 2969 2970 2971 2972 2972 2973 2973 2967 2963 2968 2974 2975 2979 2984 2982 2976 2972 2970 2973 2980 2984 2984 2986 2990 2995 2999 2997 2995 2996 3001 3004 3006 3009 3014 3018 3019 3021 3023 3024 3026 3027 3027 3028 3029 3029 3030 3031 3031 3032 3033 3034 3034 3035 3035 3036 3037 3037 3037 3038 3038 3037 3037 3037 3037 3037 3038 3040 3041 3042 3043 3044 3044 3045 3046 3046 3046 3046 3046 3046 3046 3046 3046 3045 3045
2965 2966 2966 2965 2967 2969 2970 2971 2971 2963 2956 2962 2970 2970 2970 2969 2967 2966 2970 2973 2974 2977 2979 2982 2985 2988 2991 2992 2991 2992 2995 3000 3001 2999 3002 3007 3011 3012 3015 3016 3018 3020 3021 3021 3022 3023 3024 3025 3026 3027 3028 3029 3029 3030 3030 3031 3032 3032 3033 3033 3034 3034 3034 3033 3033 3033 3033 3034 3035 3037 3038 3039 3040 3041 3041 3042 3042 3042 3042 3042 3042 3042 3042 3042 3042 3042
2962 2963 2962 2961 2962 2964 2963 2962 2960 2955 2952 2957 2961 2961 2960 2963 2966 2970 2973 2973 2973 2975 2978 2980 2983 2986 2987 2988 2988 2990 2993 2995 2994 2993 2995 3000 3004 3006 3009 3011 3012 3014 3015 3016 3017 3018 3019 3020 3021 3022 3023 3024 3025 3025 3026 3027 3027 3028 3029 3030 3030 3030 3030 3030 3030 3030 3030 3030 3032 3034 3035 3036 3037 3037 3037 3037 3038 3037 3037 3037 3037 3038 3038 3038 3038 3038
2956 2957 2958 2958 2957 2957 2955 2954 2954 2953 2953 2954 2956 2957 2961 2965 2967 2969 2970 2971 2972 2973 2975 2977 2980 2983 2985 2986 2986 2988 2989 2989 2989 2989 2990 2994 2998 3001 3003 3005 3006 3007 3009 3011 3012 3013 3014 3016 3017 3018 3019 3020 3021 3021 3022 3023 3024 3024 3025 3026 3026 3026 3026 3026 3027 3027 3027 3028 3029 3030 3031 3032 3032 3032 3033 3033 3033 3033 3033 3033 3033 3034 3034 3034 3035 3035
2951 2953 2955 2956 2955 2955 2952 2951 2953 2953 2952 2952 2954 2956 2960 2963 2964 2965 2967 2968 2970 2971 2972 2974 2976 2978 2981 2982 2983 2984 2984 2984 2984 2984 2985 2988 2992 2995 2997 2999 3000 3002 3004 3006 3007 3009 3010 3011 3012 3014 3015 3016 3017 3018 3018 3019 3019 3020 3021 3022 3022 3022 3022 3023 3023 3024 3024 3025 3026 3027 3027 3027 3028 3028 3028 3028 3028 3029 3029 3030 3030 3030 3031 3031 3032 3032
2947 2950 2952 2952 2953 2952 2947 2945 2948 2950 2950 2951 2953 2955 2957 2959 2960 2962 2964 2965 2967 2969 2970 2971 2972 2974 2976 2978 2979 2980 2980 2979 2979 2978 2980 2983 2986 2989 2991 2994 2996 2998 3000 3002 3003 3004 3005 3006 3008 3009 3011 3012 3013 3014 3015 3015 3016 3016 3017 3018 3018 3019 3019 3019 3020 3020 3021 3022 3022 3023 3024 3024 3024 3024 3024 3025 3025 3025 3026 3026 3026 3027 3027 3027 3028 3028
2944 2946 2947 2947 2947 2946 2941 2940 2944 2947 2948 2950 2951 2953 2955 2957 2958 2960 2962 2964 2966 2967 2967 2968 2969 2969 2971 2973 2975 2976 2975 2975 2975 2974 2975 2978 2981 2984 2987 2990 2993 2995 2996 2997 2999 3000 3001 3003 3004 3005 3006 3008 3009 3009 3010 3011 3012 3012 3013 3014 3014 3015 3016 3016 3017 3017 3018 3019 3019 3020 3021 3021 3021 3021 3021 3021 3022 3022 3022 3023 3023 3023 3024 3024 3024 3024
2941 2941 2941 2943 2944 2941 2937 2936 2940 2943 2943 2944 2948 2950 2952 2955 2957 2959 2960 2962 2963 2965 2965 2965 2965 2965 2967 2969 2971 2971 2971 2971 2971 2971 2973 2975 2978 2981 2984 2987 2989 2990 2992 2993 2995 2996 2997 2999 3000 3001 3002 3003 3004 3005 3006 3007 3008 3008 3008 3009 3010 3011 3012 3013 3013 3014 3015 3016 3016 3017 3018 3018 3018 3018 3019 3019 3019 3019 3020 3020 3020 3021 3021 3021 3021 3021
2936 2935 2937 2940 2939 2934 2930 2930 2935 2937 2937 2940 2945 2948 2951 2953 2955 2956 2958 2959 2961 2963 2963 2963 2963 2963 2964 2966 2967 2967 2968 2968 2969 2970 2972 2974 2976 2979 2981 2983 2985 2986 2988 2990 2991 2993 2994 2995 2996 2997 2998 2999 3001 3002 3002 3003 3004 3004 3005 3005 3005 3007 3008 3009 3010 3011 3012 3012 3013 3014 3014 3015 3015 3015 3016 3016 3017 3017 3017 3017 3017 3017 3017 3018 3018 3017
2927 2928 2930 2932 2930 2926 2925 2928 2933 2935 2936 2939 2943 2946 2948 2950 2952 2953 2955 2957 2959 2961 2962 2962 2962 2962 2963 2963 2964 2965 2965 2966 2967 2969 2970 2972 2973 2975 2977 2979 2981 2983 2984 2986 2988 2989 2991 2992 2992 2994 2995 2996 2997 2998 2999 3000 3000 3001 3001 3001 3002 3003 3004 3006 3007 3008 3008 3009 3009 3010 3010 3011 3011 3012 3012 3013 3013 3013 3014 3014 3014 3014 3013 3013 3013 3013